Weather History for Baton Rouge, LA

Change the Weather History Date:

Monday, January 21, 2013

  Actual Average Record
Temperature  
Mean Temperature 53 °F 52 °F  
Max Temperature 68 °F 62 °F 82 °F (1938)
Min Temperature 38 °F 41 °F 9 °F (1985)
Degree Days  
Heating Degree Days 12 14  
Month to date heating degree days 290 294  
Since 1 July heating degree days 867 910  
Cooling Degree Days 0 0  
Month to date cooling degree days 11 3  
Year to date cooling degree days 11 3  
Growing Degree Days 2 (Base 50)    
Moisture  
Dew Point 41 °F    
Average Humidity 69    
Maximum Humidity 100    
Minimum Humidity 37    
Precipitation  
Precipitation 0.00 in 0.19 in 2.28 in (1935)
Month to date precipitation 13.82 3.83  
Year to date precipitation 13.82 3.83  
Snow  
Snow 0.00 in - - ()
Month to date snowfall 0.0  
Since 1 July snowfall 0.0  
Snow Depth 0.00 in    
Sea Level Pressure  
Sea Level Pressure 30.19 in    
Wind  
Wind Speed 2 mph (NNE)    
Max Wind Speed 12 mph    
Max Gust Speed 23 mph    
Visibility 10 miles    
Events      
T = Trace of Precipitation, MM = Missing Value Source: NWS Daily Summary

Daily Weather History Graph

Daily Weather History Graph

Search for Another Location

Airport:

Trip Planner

Search our weather history database for the weather conditions in past years. The results will help you decide how hot, cold, wet, or windy it might be!

Date:

Astronomy

Jan. 21, 2013 Rise Set
Actual Time 7:00 AM CST 5:31 PM CST
Civil Twilight 6:35 AM CST 5:57 PM CST
Nautical Twilight 6:05 AM CST 6:26 PM CST
Astronomical Twilight 5:37 AM CST 6:55 PM CST
Moon 1:13 PM CST (1/21) 2:28 AM CST (1/21)
Length of Visible Light 11h 22m
Length of Day
10h 30m
Waxing Gibbous, 75% of the Moon is Illuminated
Jan 21
Waxing Gibbous
Jan 26
Full
Feb 3
Last Quarter
Feb 10
New
Feb 17
First Quarter

Hourly Weather History & Observations

Time (CST) Temp. Dew Point Humidity Pressure Visibility Wind Dir Wind Speed Gust Speed Precip Events Conditions
12:53 AM 41.0 °F 37.9 °F 89% 30.15 in 10.0 mi Calm Calm - N/A   Clear
1:53 AM 39.9 °F 37.9 °F 93% 30.15 in 10.0 mi Calm Calm - N/A   Clear
2:53 AM 39.9 °F 37.9 °F 93% 30.16 in 10.0 mi Calm Calm - N/A   Clear
3:53 AM 39.9 °F 37.9 °F 93% 30.17 in 10.0 mi Calm Calm - N/A   Clear
4:53 AM 39.0 °F 37.9 °F 96% 30.17 in 9.0 mi Calm Calm - N/A   Clear
5:53 AM 39.0 °F 37.0 °F 93% 30.18 in 10.0 mi Calm Calm - N/A   Clear
6:53 AM 37.9 °F 37.0 °F 97% 30.19 in 10.0 mi Calm Calm - N/A   Clear
7:53 AM 41.0 °F 39.0 °F 93% 30.22 in 10.0 mi Calm Calm - N/A   Clear
8:53 AM 51.1 °F 43.0 °F 74% 30.23 in 10.0 mi Calm Calm - N/A   Clear
9:53 AM 60.1 °F 44.1 °F 55% 30.24 in 10.0 mi North 3.5 mph - N/A   Clear
10:53 AM 64.0 °F 44.1 °F 48% 30.23 in 10.0 mi NNW 5.8 mph - N/A   Clear
11:53 AM 66.0 °F 43.0 °F 43% 30.20 in 10.0 mi Calm Calm - N/A   Clear
12:53 PM 66.0 °F 41.0 °F 40% 30.18 in 10.0 mi Variable 3.5 mph - N/A   Partly Cloudy
1:53 PM 66.9 °F 42.1 °F 40% 30.17 in 10.0 mi NE 6.9 mph - N/A   Mostly Cloudy
2:53 PM 68.0 °F 41.0 °F 37% 30.17 in 10.0 mi NNE 6.9 mph - N/A   Scattered Clouds
3:53 PM 66.9 °F 41.0 °F 39% 30.17 in 10.0 mi NNE 6.9 mph - N/A   Partly Cloudy
4:53 PM 64.0 °F 41.0 °F 43% 30.18 in 10.0 mi North 4.6 mph - N/A   Clear
5:53 PM 60.1 °F 41.0 °F 49% 30.19 in 10.0 mi Variable 4.6 mph - N/A   Clear
6:53 PM 57.9 °F 45.0 °F 62% 30.20 in 10.0 mi North 4.6 mph - N/A   Clear
7:53 PM 55.9 °F 45.0 °F 67% 30.21 in 10.0 mi Calm Calm - N/A   Clear
8:53 PM 54.0 °F 45.0 °F 72% 30.22 in 10.0 mi North 4.6 mph - N/A   Clear
9:53 PM 50.0 °F 44.1 °F 80% 30.22 in 10.0 mi Calm Calm - N/A   Clear
10:53 PM 48.9 °F 43.0 °F 80% 30.22 in 10.0 mi NNE 3.5 mph - N/A   Clear
11:53 PM 46.9 °F 42.1 °F 83% 30.22 in 10.0 mi NE 3.5 mph - N/A   Clear